Home > Weather > Lanchow > Past weeks

Flag for China Past Weather in Lanchow, Gansu, China — Yesterday and Last 2 Weeks

Now
55 °F

Passing clouds.


Feels Like: 55 °F
Forecast: 50 / 74 °F
Wind: 1 mph from Northwest

Location: Lanzhou / Zhongchuan

Current Time: Aug 27, 2016 at 2:42:05 AM

Latest Report: Aug 27, 2016 at 2:00 AM


Visibility: N/A

Pressure: 30.27 "Hg (25.21 "Hg at 1531m altitude)

Humidity: 94%

Dew Point: 54 °F

Location of LanchowLocation

Past Weather in Lanchow — Graph

°F

Lanchow Temperature Yesterday

Maximum temperature yesterday: 68 °F (at 4:00 PM)
Minimum temperature yesterday: 52 °F (at 12:00 AM)
Average temperature yesterday: 59 °F

High & Low Weather Summary for the Past Weeks

 TemperatureHumidityPressure
High88 °F (Aug 17, 5:00 PM)100% (Aug 15, 4:00 AM)30.36 "Hg (Aug 15, 4:00 AM)
Low52 °F (Aug 25, 11:00 PM)39% (Aug 12, 2:00 PM)29.68 "Hg (Aug 17, 4:00 PM)
Average69 °F71%30.03 "Hg
* Reported Aug 12 1:00 AM — Aug 27 1:00 AM, Lanchow, Weather by CustomWeather, © 2016

Note: Actual official high and low records may vary slightly from our data, if they occured in-between our weather recording intervals... More about our weather records

Advertising

Lanchow Weather History for the Previous 24 Hours

Scroll right to see more
 ConditionsComfort  
Time TempWeatherWind HumidityBarometerVisibility
1:00 AM
Sat, Aug 27
55 °FPassing clouds.1 mph100%30.27 "HgN/A
12:00 AM57 °FPassing clouds.1 mph88%30.30 "HgN/A
11:00 PM
Fri, Aug 26
57 °FPassing clouds.3 mph88%30.30 "HgN/A
10:00 PM59 °FClear.1 mph88%30.30 "Hg10 mi
9:00 PM63 °FClear.No wind77%30.27 "Hg10 mi
8:00 PM63 °FPassing clouds.1 mph77%30.24 "HgN/A
7:00 PM66 °FPassing clouds.1 mph56%30.24 "HgN/A
6:00 PM68 °FScattered clouds.3 mph53%30.24 "HgN/A
5:00 PM68 °FPassing clouds.1 mph49%30.24 "HgN/A
4:00 PM68 °FPassing clouds.3 mph49%30.24 "HgN/A
3:00 PM66 °FPassing clouds.1 mph49%30.24 "HgN/A
2:00 PM66 °FPartly sunny.3 mph52%30.27 "HgN/A
1:00 PM64 °FPartly sunny.3 mph52%30.30 "HgN/A
12:00 PM63 °FPartly sunny.No wind45%30.33 "HgN/A
11:00 AM61 °FOvercast.1 mph48%30.33 "HgN/A
10:00 AM57 °FOvercast.3 mph59%30.33 "HgN/A
9:00 AM55 °FOvercast.1 mph72%30.33 "HgN/A
8:00 AM55 °FOvercast.1 mph77%30.33 "HgN/A
7:00 AM54 °FPassing clouds.1 mph82%30.30 "HgN/A
6:00 AM52 °FPassing clouds.3 mph94%30.27 "HgN/A
5:00 AM52 °FClear.1 mph88%30.27 "Hg10 mi
4:00 AM54 °FClear.1 mph88%30.27 "Hg10 mi
3:00 AM54 °FClear.No wind77%30.27 "Hg10 mi
2:00 AM54 °FClear.1 mph88%30.30 "Hg10 mi
Weather by CustomWeather, © 2016

See weather overviewHow to use our weather pages